#timestamp,LO_Frequency,Hit,StdDev 
1634331615.8,286047000.3,N
1634331635.7,286046999.9,N
1634331655.5,286047002.6,N
1634331675.3,286047002.4,N
1634331695.2,286047004.2,N
1634331715.0,286047002.2,N
1634331715.9,286047002.2,N
1634331735.8,286046999.9,N
1634331755.6,286047002.4,N
1634331775.4,286047001.9,N
1634331795.3,286047001.7,N
1634331815.1,286047001.6,N
1634331835.8,286047001.7,N
1634331855.7,286047001.8,N
1634331875.5,286047001.6,N
1634331895.3,286046999.8,N
1634331915.2,286047002.7,N
1634331935.0,286047001.6,N
1634331935.9,286047001.6,N
1634331955.8,286047002.3,N
1634331975.6,286047002.2,N
1634331995.4,286047002.8,N
1634332015.3,286047002.7,N
1634332035.1,286047002.7,N
1634332055.9,286047002.8,N
1634332075.7,286047002.4,N
1634332095.5,286047004.3,Y
1634332115.4,286047002.7,P
1634332135.2,286047001.1,N
1634332155.0,286047000.7,N
1634332155.9,286047000.7,N
1634332175.8,286047000.5,N
1634332195.6,286047000.1,N
1634332215.5,286047001.5,N
1634332235.3,286047001.7,N
1634332255.1,286047001.5,N
1634332275.9,286047002.2,Y
1634332295.7,286047000.3,P
1634332315.6,286047000.6,N
1634332335.4,286047000.9,N
1634332355.2,286047002.6,Y
1634332375.1,286047000.4,P
1634332376.0,286047000.4,N
1634332395.8,286047000.7,P
1634332415.6,286046998.1,Y
1634332435.5,286046998.2,P
1634332455.3,286046998.5,N
1634332475.2,286046999.0,N
1634332495.9,286046999.4,N
1634332515.7,286046998.8,N
1634332535.6,286047001.1,N
1634332555.4,286047002.7,N
1634332575.2,286047002.7,N
1634332595.1,286047004.4,N
1634332596.0,286047004.4,N
1634332615.8,286046999.7,N
1634332635.7,286047001.0,N
1634332655.5,286047002.3,N
1634332675.3,286047001.6,N
1634332695.2,286046999.0,N
1634332715.0,286046999.0,N
1634332715.9,286046999.0,N
1634332735.8,286046998.9,N
1634332755.6,286046996.7,N
1634332775.4,286046997.4,N
1634332795.3,286046996.5,N
1634332815.1,286046998.8,N
1634332835.8,286046998.4,N
1634332855.7,286047001.0,N
1634332875.5,286047000.7,N
1634332895.4,286047000.6,N
1634332915.2,286046999.8,N
1634332935.0,286047000.0,N
1634332935.9,286047000.0,N
1634332955.8,286047000.0,N
1634332975.6,286047002.1,N
1634332995.4,286047003.6,N
1634333015.3,286047002.2,N
1634333035.1,286047001.9,N
1634333055.9,286047002.2,N
1634333075.7,286047002.2,N
1634333095.5,286047001.3,N
1634333115.4,286047001.3,N
1634333135.2,286047002.0,N
1634333155.1,286047001.3,N
1634333156.0,286047001.3,N
1634333175.8,286047003.1,N
1634333195.6,286047003.7,N
1634333215.5,286047005.8,Y
1634333235.3,286047001.5,P
1634333255.1,286047002.4,P
1634333275.9,286047002.0,N
1634333295.7,286047001.8,N
1634333315.6,286047004.4,Y
1634333335.4,286047002.4,P
1634333355.2,286047001.6,P
1634333375.1,286047002.4,P
1634333376.0,286047002.4,Y
1634333395.8,286047001.0,P
1634333415.7,286047001.2,N
1634333435.5,286047001.1,N
1634333455.3,286046998.1,Y
1634333475.2,286047001.0,P
1634333495.0,286047002.8,P
1634333495.9,286047002.8,P
1634333515.8,286047000.1,N
1634333535.6,286047001.9,N
1634333555.4,286047000.2,N
1634333575.3,286046999.3,N
1634333595.1,286047001.0,N
1634333615.8,286047001.2,N
1634333635.7,286046998.4,N
1634333655.5,286046998.1,N
1634333675.4,286046998.8,N
1634333695.2,286046998.5,N
1634333715.0,286046998.5,N
1634333715.9,286046998.5,N
1634333735.8,286047000.9,N
1634333755.6,286046998.4,N
1634333775.5,286046999.1,N
1634333795.3,286046999.4,N
1634333815.1,286046998.3,N
1634333835.9,286046999.5,N
1634333855.7,286046996.7,N
1634333875.5,286046997.4,N
1634333895.4,286046996.9,N
1634333915.2,286046999.0,N
1634333935.1,286046999.5,N
1634333936.0,286046999.5,N
1634333955.8,286047000.5,N
1634333975.6,286047000.2,N
1634333995.5,286046999.9,N
1634334015.3,286047001.1,N
1634334035.1,286047000.6,N
1634334055.9,286046998.9,N
1634334075.7,286046999.5,N
1634334095.6,286046998.7,N
1634334115.4,286046999.3,N
1634334135.2,286046996.6,N
1634334155.1,286046999.5,N
1634334156.0,286046999.5,N
1634334175.8,286046998.4,N
1634334195.7,286047000.0,N
1634334215.5,286046999.8,N
1634334235.3,286047002.7,N
1634334255.2,286047000.4,N
1634334275.0,286047002.8,N
1634334275.9,286047002.8,N
1634334295.7,286046998.2,N
1634334315.6,286046999.3,N
1634334335.4,286046998.4,N
1634334355.3,286047001.1,N
1634334375.1,286046998.6,N
1634334376.0,286046998.6,N
1634334395.8,286047000.5,N
1634334415.7,286046999.1,N
1634334435.5,286046998.7,N
1634334455.4,286046998.6,N
1634334475.2,286046998.3,N
1634334495.0,286047000.3,N
1634334495.9,286047000.3,N
1634334515.8,286047000.2,N
1634334535.6,286047000.4,N
1634334585.5,286046999.9,E
1634334595.4,286047001.2,N
1634334615.2,286046997.2,P
1634334635.1,286046998.3,N
1634334636.0,286046998.3,N
1634334655.8,286046997.3,N
1634334675.6,286046997.9,N
1634334695.5,286046996.8,N
1634334715.3,286046997.7,N
1634334735.2,286046996.9,N
1634334755.0,286046997.9,N
1634334755.9,286046997.9,N
1634334775.7,286046999.5,N
1634334795.6,286046998.1,N
1634334815.4,286046999.8,N
1634334835.3,286046998.6,N
1634334855.1,286047001.1,N
1634334856.0,286047001.1,N
1634334875.8,286046999.3,N
1634334895.7,286046998.6,N
1634334915.5,286046998.3,N
1634334935.3,286046998.4,N
1634334955.2,286046999.0,N
1634334975.0,286046999.3,N
1634334975.9,286046999.3,N
1634334995.8,286046998.7,N
1634335015.6,286046998.1,N
1634335035.4,286046999.0,N
1634335055.3,286046999.0,N
1634335075.1,286047000.6,N
1634335095.9,286047002.8,N
1634335115.7,286047002.2,N
1634335135.5,286047002.6,N
1634335155.4,286047000.1,N
1634335175.2,286046999.8,N
1634335195.0,286047000.8,N
1634335195.9,286047000.8,N
